Ramona, CA

10:26 PM PST on January 16, 2017 (GMT -0800)
Ramona

Weather History for KRNM - January, 2014

Change the Weather History Date:

Friday, January 31, 2014

  Actual Average Record
Temperature  
Mean Temperature 54 °F 50 °F  
Max Temperature 58 °F 65 °F 88 °F (2003)
Min Temperature 50 °F 36 °F 25 °F (2012)
Degree Days  
Heating Degree Days 11 15  
Month to date heating degree days 283 465  
Since 1 July heating degree days 1123 1347  
Cooling Degree Days 0 0  
Month to date cooling degree days 0 1  
Year to date cooling degree days 0 1  
Moisture  
Dew Point 48 °F    
Average Humidity 83    
Maximum Humidity 100    
Minimum Humidity 66    
Precipitation  
Precipitation 0.17 in 0.11 in 1.73 in (1979)
Month to date precipitation 0.19 3.32  
Year to date precipitation 0.19 3.32  
Since 1 July precipitation 2.95  
Snow  
Snow 0.00 in - - ()
Month to date snowfall 0.0  
Year to date snowfall 0.0  
Snow Depth 0.00 in    
Sea Level Pressure  
Sea Level Pressure 29.94 in    
Wind  
Wind Speed 10 mph (West)    
Max Wind Speed 17 mph    
Max Gust Speed 21 mph    
Visibility 7 miles    
Events Fog , Rain    
T = Trace of Precipitation, MM = Missing Value Source: NWS Daily Summary

Daily Weather History Graph

Daily Weather History Graph

Search for Another Location

Airport or City:

Trip Planner

Search our weather history database for the weather conditions in past years. The results will help you decide how hot, cold, wet, or windy it might be!

Date:

Astronomy

Jan. 31, 2014 Rise Set
Actual Time 6:43 AM PST 5:19 PM PST
Civil Twilight 6:17 AM PST 5:45 PM PST
Nautical Twilight 5:47 AM PST 6:14 PM PST
Astronomical Twilight 5:18 AM PST 6:43 PM PST
Moon 7:02 AM PST (1/31) 6:41 PM PST (1/31)
Length of Visible Light 11h 27m
Length of Day
10h 35m
New Moon, 1% of the Moon is Illuminated
Jan 31
New Moon
Feb 6
First Quarter
Feb 14
Full
Feb 22
Last Quarter
Mar 1
New

Hourly Weather History & Observations

Time (PST) Temp. Windchill Dew Point Humidity Pressure Visibility Wind Dir Wind Speed Gust Speed Precip Events Conditions
12:18 AM 53.1 °F - 52.0 °F 96% 29.92 in 2.5 mi SSW 5.8 mph - 0.01 in Rain Light Rain
12:29 AM 53.1 °F - 52.0 °F 96% 29.92 in 3.0 mi West 6.9 mph - 0.05 in Rain Light Rain
12:41 AM 53.1 °F - 52.0 °F 96% 29.92 in 4.0 mi WSW 15.0 mph - 0.05 in Rain Light Rain
12:45 AM 53.1 °F - 52.0 °F 96% 29.92 in 1.5 mi WSW 15.0 mph - 0.05 in Rain Light Rain
12:48 AM 53.6 °F - 51.8 °F 94% 29.92 in 0.8 mi WSW 13.8 mph - 0.05 in Rain Light Rain
12:53 AM 53.1 °F - 52.0 °F 96% 29.89 in 0.5 mi West 10.4 mph - 0.05 in Fog , Rain Light Rain
1:04 AM 52.0 °F - 52.0 °F 100% 29.91 in 1.2 mi WSW 12.7 mph - 0.00 in Rain Light Rain
1:09 AM 52.0 °F - 52.0 °F 100% 29.92 in 3.0 mi WSW 12.7 mph - 0.01 in Rain Light Rain
1:35 AM 52.0 °F - 52.0 °F 100% 29.92 in 2.5 mi West 15.0 mph - 0.01 in Rain Light Rain
1:53 AM 52.0 °F - 51.1 °F 97% 29.90 in 4.0 mi West 11.5 mph - 0.01 in Rain Light Rain
2:01 AM 52.0 °F - 52.0 °F 100% 29.92 in 1.8 mi West 8.1 mph - 0.00 in Rain Light Rain
2:08 AM 52.0 °F - 52.0 °F 100% 29.92 in 0.8 mi WSW 10.4 mph - 0.00 in Rain Light Rain
2:13 AM 52.0 °F - 51.1 °F 97% 29.91 in 1.2 mi SW 11.5 mph - 0.01 in Rain Light Rain
2:18 AM 52.0 °F - 51.1 °F 97% 29.91 in 3.0 mi WSW 12.7 mph - 0.01 in Rain Light Rain
2:53 AM 52.0 °F - 51.1 °F 97% 29.89 in 3.0 mi West 8.1 mph - 0.02 in Rain Light Rain
3:04 AM 52.0 °F - 51.1 °F 97% 29.90 in 2.5 mi West 10.4 mph - 0.02 in Rain Light Rain
3:17 AM 52.0 °F - 51.1 °F 97% 29.91 in 5.0 mi West 12.7 mph - 0.04 in Rain Light Rain
3:53 AM 51.1 °F - 48.9 °F 92% 29.89 in 10.0 mi West 11.5 mph - 0.04 in   Overcast
4:53 AM 51.1 °F - 50.0 °F 96% 29.89 in 8.0 mi West 9.2 mph - 0.03 in Rain Light Rain
5:53 AM 50.0 °F - 48.9 °F 96% 29.91 in 8.0 mi West 9.2 mph - 0.00 in   Overcast
6:53 AM 50.0 °F - 48.0 °F 93% 29.94 in 7.0 mi West 11.5 mph - 0.01 in Rain Light Rain
7:32 AM 50.0 °F - 48.9 °F 96% 29.96 in 2.0 mi West 9.2 mph - 0.00 in Rain Light Rain
7:53 AM 50.0 °F - 48.9 °F 96% 29.96 in 9.0 mi West 9.2 mph - 0.01 in   Overcast
8:34 AM 51.1 °F - 48.9 °F 92% 29.98 in 10.0 mi West 8.1 mph - N/A   Overcast
8:53 AM 51.1 °F - 48.0 °F 89% 29.97 in 10.0 mi West 8.1 mph - N/A   Overcast
9:00 AM 52.0 °F - 48.9 °F 89% 29.99 in 10.0 mi West 8.1 mph - N/A   Overcast
9:11 AM 51.1 °F - 48.9 °F 92% 29.99 in 5.0 mi WNW 8.1 mph - 0.00 in Rain Light Rain
9:21 AM 51.1 °F - 48.9 °F 92% 29.98 in 10.0 mi West 5.8 mph - 0.00 in Rain Light Rain
9:31 AM 52.0 °F - 48.9 °F 89% 29.99 in 10.0 mi West 8.1 mph - 0.00 in   Overcast
9:53 AM 52.0 °F - 48.0 °F 86% 29.99 in 10.0 mi West 12.7 mph - 0.00 in   Overcast
10:00 AM 53.1 °F - 48.9 °F 86% 30.00 in 10.0 mi West 12.7 mph - N/A   Overcast
10:25 AM 52.0 °F - 46.9 °F 83% 29.99 in 10.0 mi WNW 10.4 mph - N/A   Overcast
10:53 AM 53.1 °F - 46.9 °F 80% 29.98 in 10.0 mi West 10.4 mph - N/A   Mostly Cloudy
11:19 AM 52.0 °F - 46.9 °F 83% 29.98 in 10.0 mi West 9.2 mph - N/A   Overcast
11:40 AM 53.1 °F - 46.9 °F 80% 29.97 in 10.0 mi West 10.4 mph - N/A   Mostly Cloudy
11:53 AM 53.1 °F - 46.9 °F 80% 29.95 in 10.0 mi West 6.9 mph - N/A   Mostly Cloudy
12:53 PM 54.0 °F - 45.0 °F 72% 29.91 in 10.0 mi West 8.1 mph - N/A   Overcast
1:32 PM 55.0 °F - 45.0 °F 69% 29.93 in 10.0 mi West 11.5 mph - N/A   Overcast
1:42 PM 55.0 °F - 45.0 °F 69% 29.93 in 10.0 mi West 11.5 mph 17.3 mph N/A   Overcast
1:53 PM 55.0 °F - 44.1 °F 67% 29.91 in 10.0 mi West 12.7 mph - N/A   Overcast
2:06 PM 57.0 °F - 44.1 °F 62% 29.92 in 10.0 mi West 16.1 mph - N/A   Overcast
2:53 PM 54.0 °F - 44.1 °F 69% 29.91 in 10.0 mi West 10.4 mph - N/A   Mostly Cloudy
3:53 PM 53.1 °F - 43.0 °F 69% 29.92 in 10.0 mi West 12.7 mph - N/A   Overcast
4:00 PM 53.1 °F - 42.1 °F 66% 29.93 in 10.0 mi West 11.5 mph - N/A   Partly Cloudy
4:53 PM 51.1 °F - 43.0 °F 74% 29.91 in 10.0 mi West 8.1 mph - N/A   Partly Cloudy
5:53 PM 48.9 °F - 44.1 °F 83% 29.93 in 10.0 mi West 6.9 mph - N/A   Mostly Cloudy
6:10 PM 50.0 °F - 45.0 °F 83% 29.94 in 10.0 mi West 10.4 mph - N/A   Mostly Cloudy
6:32 PM 48.9 °F - 45.0 °F 86% 29.95 in 10.0 mi West 8.1 mph - N/A   Scattered Clouds
6:53 PM 46.9 °F - 44.1 °F 90% 29.94 in 10.0 mi West 3.5 mph - N/A   Clear
7:53 PM 46.9 °F - 44.1 °F 90% 29.95 in 10.0 mi Calm Calm - N/A   Mostly Cloudy
8:53 PM 48.0 °F - 45.0 °F 89% 29.96 in 10.0 mi Calm Calm - N/A   Overcast
9:43 PM 44.1 °F 41.5 °F 42.1 °F 93% 29.96 in 9.0 mi SE 4.6 mph - N/A   Scattered Clouds
9:53 PM 45.0 °F - 42.1 °F 90% 29.95 in 8.0 mi Calm Calm - N/A   Partly Cloudy
10:53 PM 43.0 °F 41.3 °F 41.0 °F 93% 29.96 in 8.0 mi ENE 3.5 mph - N/A   Clear
11:53 PM 39.0 °F - 37.9 °F 96% 29.96 in 7.0 mi Calm Calm - N/A   Scattered Clouds